Weather Roundup
Issued by NWS Corpus Christi, TX

Home | Current Version | Previous Version | Text Only | Print | Product List | Glossary On
Versions: 1 2 3 4 5 6 7 8 9 10 11 12 13 14 15 16 17 18 19 20 21 22 23 24 25 26 27 28 29 30 31 32 33 34 35 36 37 38 39 40 41 42 43 44 45 46 47 48 49 50
000
ASUS44 KCRP 301710
HRRCRP

SOUTH TEXAS REGIONAL WEATHER ROUNDUP
NATIONAL WEATHER SERVICE CORPUS CHRISTI TX
1200 PM CDT SAT APR 30 2016


TXZ229>244-301800-
...CORPUS CHRISTI AREA OBSERVATIONS...

CITY           SKY/WX    TMP DP  RH WIND       PRES   REMARKS
CORPUS CHRISTI PTSUNNY   89  68  49 NE8       29.68S HX  93
NAS CORPUS CHR MOSUNNY   88  79  74 NE9       29.68S HX 102
ROCKPORT       SUNNY     86  74  67 SE8       29.68F HX  94
KINGSVILLE NAS MOSUNNY   88  77  69 VRB5      29.68S HX 100
ALICE          SUNNY     88  67  49 NE9       29.69R HX  91
FALFURRIAS     MOSUNNY   91  70  50 N8        29.67S HX  96
$$

...VICTORIA AREA OBSERVATIONS...

CITY           SKY/WX    TMP DP  RH WIND       PRES   REMARKS
VICTORIA       PTSUNNY   84  74  71 N14       29.69F HX  91
BEEVILLE       FAIR      83  69  62 N7        29.71S
PLEASANTON     SUNNY     82  62  50 NE9       29.75R
SAN ANTONIO    PTSUNNY   79  62  56 N12       29.78R
$$

...LAREDO AREA OBSERVATIONS...

CITY           SKY/WX    TMP DP  RH WIND       PRES   REMARKS
LAREDO         SUNNY     85  54  34 N10       29.75S
COTULLA        MOSUNNY   86  51  29 NE8       29.75S
DEL RIO        SUNNY     84  37  18 VRB5      29.78S
MCALLEN        PTSUNNY   91  75  59 N9        29.68S HX 101
HEBBRONVILLE   PTSUNNY   86  67  53 N6        29.73S
$$

...OTHER TEXAS OBSERVATIONS...

CITY           SKY/WX    TMP DP  RH WIND       PRES   REMARKS
BROWNSVILLE    CLOUDY    82  79  90 NE7       29.67F FOG     HX  92
HOUSTON        MOSUNNY   78  63  59 E10G18    29.73F
COL. STATION   SUNNY     80  67  64 E9        29.74F
AUSTIN         PTSUNNY   76  65  68 N10       29.78R
WACO           PTSUNNY   69  60  73 N13       29.80S
FORT WORTH     CLOUDY    66  57  72 NW12      29.80R
WICHITA FALLS  SUNNY     63  49  60 NW8       29.84F
LUBBOCK        MOSUNNY   60  39  45 S7        29.89S
EL PASO        MOSUNNY   68  29  23 VRB7      29.87F
$$

...MARINE OBSERVATIONS...

STATION/POSITION TIME  SKY/WX   TEMP    WIND        PRES    VSBY  WAVE   SWELL
                                AIR SEA DIR/SP/G                  HT/PER HT/PER
                 (UTC)          (F)     (DEG/KT/KT) (MB)    (MI)  (FT/S) (FT/S)
PORT ARANSAS     1700            78 79  100/  9/ 10 1005.9S
BUOY 90 E PORT A 1650            78 77   80/  4/  4 1006.1F         6/ 8   5/ 8
BUOY 45 SE BAFFI 1650            78 78   90/  6/  6 1005.1F         6/ 8   7/ 8
BUOY 200 E PT IS 1650                                 N/A           8/ 8   2/16
BUOY 15 E GALVES 1650            74 77   10/ 10/ 14 1006.9R         4/ 8   3/ 8
$$




USA.gov is the U.S. government's official web portal to all federal, state and local government web resources and services.